THORAD AGENA D DEB, 42492

Orbit data source: Space-Track

THORAD AGENA D DEB, 42492 is space debris in SSO originally from a launch on Wed, 08 Apr 1970 UTC launched from the Air Force Western Test Range (AFWTR). Debris objects in space refer to the collection of defunct objects orbiting the Earth. Examples of debris include non-operational satellites, rocket bodies, and fragments generated from explosions, collisions, or faulty payload assembly.

Loading next visibility...
Identifier
42492, 1970-025QW
Orbit
SSO
Country
Flag of USUS
Related business
Manufacturer
Unknown
Mission
Spacecraft
Bus & Motor
Unknown
Mass
Unknown
Launch date (UTC)
1970-04-08 (56 years ago)
Launch vehicle
Unknown
Launch site
Air Force Western Test Range (AFWTR)
Object type
Payload
Rocket body
Debris
Shape & HBR
Unknown shape, 0.1 m
Radar Cross Section
Small (<0.1 m²)

Expand to show TLE details & history
Last TLE update: 4 days ago

TLE from 4 days ago
0 THORAD AGENA D DEB
1 42492U 70025QW  26252.79756978  .00000229  00000-0  34534-3 0  9995
2 42492  99.2800  97.2409 0004894 247.0658 175.6905 13.63044758624139
Epoch: 2026-09-09T19:08Z
TLE epoch observation values (Epoch: 2026-09-09T19:08:30.028Z)
Latitude
61.43057°
Longitude
163.90224°
Altitude
1,038.698 km
Speed
7.336 km/s
True Right ascension
05h 19m 29s
True Declination
61° 17' 29"
Sunlit
Object was in daylight at epoch
Visualization orbit readout
Latitude
Unknown
Longitude
Unknown
Altitude
Unknown
Speed
Unknown
Apparent Right ascension
Unknown
Apparent Declination
Unknown
Sunlit
N/A
Visualization observer readout
Local Sidereal Time
07:43:34
Azimuth
Unknown
Elevation
Unknown
Doppler factor
Unknown
Orbital elements
Apogee altitude
1,025.532 km
Perigee altitude
1,018.288 km
Semi-major axis
7,400.047 km
Eccentricity
0.00049
Inclination
99.28°
RAAN
97.2409°
Arg. of periapsis
247.0658°
True anomaly
175.69471°
Mean anomaly
175.6905°
Eccentric anomaly
175.69261°
Mean motion
3.40951 °/min
Orbital period
105.59 mins
BSTAR
0.00034534
Loading maneuver chart data...
Computing Atmospheric mass density...

Documentation

Showing up to 5 results
|